Location: Columbia
(38.9520°N, 92.3340°W)
Time: 22:48:24
(UTC-05:00)

Tiangong 1 - Visible Passes

Search period start: 22 October 2014 00:00
Search period end: 01 November 2014 00:00
Orbit: 352 x 361 km, 42.8° (Epoch: 22 October)

Date Brightness Start Highest point End Pass type
(mag) Time Alt. Az. Time Alt. Az. Time Alt. Az.
22 Oct 3.1 20:16:48 10° WSW 20:18:14 25° WSW 20:18:14 25° WSW visible
23 Oct 1.8 19:08:31 10° SW 19:11:17 35° SSE 19:13:01 18° E visible
23 Oct 4.5 20:44:26 10° W 20:44:40 12° W 20:44:40 12° W visible
24 Oct 0.8 19:35:38 10° WSW 19:38:37 86° NNW 19:39:15 51° ENE visible
25 Oct 2.3 20:03:06 10° W 20:05:19 37° NW 20:05:19 37° NW visible
26 Oct 1.0 18:54:02 10° WSW 18:57:00 71° NNW 18:59:35 13° ENE visible
26 Oct 4.1 20:30:32 10° WNW 20:31:12 15° WNW 20:31:12 15° WNW visible
27 Oct 1.7 19:21:19 10° W 19:24:10 41° N 19:25:20 27° NE visible
28 Oct 2.0 19:48:28 10° WNW 19:50:57 35° NNW 19:50:57 35° NNW visible
29 Oct 1.8 18:39:03 10° WNW 18:41:52 39° N 18:44:41 10° ENE visible
29 Oct 3.5 20:15:21 10° WNW 20:16:27 20° WNW 20:16:27 20° WNW visible
30 Oct 1.8 19:05:56 10° WNW 19:08:45 37° N 19:10:17 21° ENE visible
31 Oct 1.1 19:32:32 10° WNW 19:35:27 54° NNE 19:35:38 53° NNE visible
